User: anonymous   Login
Location: Fort Wayne
(41.1310°N, 85.1290°W)
Time: 13:22:28
(UTC-04:00)
Language:

Cosmos 2056 Rocket - Orbit

View from above orbital plane
View from above orbital plane
View from above satellite
View from above satellite

Ground track
Ground track

The orbit data is extracted from the following two-line orbital elements,

1 20433U 90004B   17228.60743402 -.00000037 +00000-0 -35261-5 0  9995
2 20433 074.0331 245.2427 0041001 357.9599 138.5351 14.35994524443598
Epoch (UTC): 16 August 2017 14:34:42
Eccentricity: 0.0041001
inclination: 74.0331°
perigee height: 742 km
apogee height: 801 km
right ascension of ascending node: 245.2427°
argument of perigee: 357.9599°
revolutions per day: 14.35994524
mean anomaly at epoch: 138.5351°
orbit number at epoch: 44359

The dashed part of the orbit path shows where the satellite is in the earth's shadow,  

DLR